Location: Newark
(45.4422°N, 16.2769°E)
Time: 01:49:07
(UTC+00:00)

Tiros 1 despin weight - Pass Details

Date: 18 December 2019
Orbit: 594 x 642 km, 48.2° (Epoch: 25 January)

Event Time Altitude Azimuth Distance (km) Brightness Sun altitude
Rises 01:57:44 0° 247° (WSW) 2,909 - -46.5°
Reaches altitude 10° 02:00:04 10° 247° (WSW) 1,996 - -46.1°
Maximum altitude 02:04:40 85° 158° (SSE) 626 - -45.3°
Drops below altitude 10° 02:09:12 10° 71° (ENE) 1,970 - -44.5°
Exits shadow 02:10:25 - 71° (ENE) 2,445 ? -44.3°
Sets 02:11:29 0° 71° (ENE) 2,867 ? -44.1°
